(207991) = 1998 EJ14

Discovered at La Silla on 1998-03-01 by E. W. Elst.

Orbit

Orbit type: Main Belt

Note: WebGL enabled browser required.

epoch2024-03-31.0
epoch JD2460400.5
perihelion date2024-01-06.78574
perihelion JD2460316.28574
argument of perihelion (°)132.54679
ascending node (°)35.02819
inclination (°)3.85962
eccentricity0.1505990
perihelion distance (AU)2.0302222
Tisserand w.r.t. Jupiter3.5
ΔV w.r.t. Earth (km/sec)9.0
semimajor axis (AU)2.3901811
mean anomaly (°)22.46173
mean daily motion (°/day)0.26672130
aphelion distance (AU)2.750
period (years)3.7
P-vector [x]-0.97561933
P-vector [y]0.17642576
P-vector [z]0.13054068
Q-vector [x]-0.21604211
Q-vector [y]-0.87673575
Q-vector [z]-0.42972112
absolute magnitude17.03
phase slope0.15
uncertainty0
referenceMPEC 2024-D64
observations used475
oppositions15
arc length (days)9485
first opposition used1998
last opposition used2024
residual rms (arc-secs)0.83
perturbers coarse indicatorM-v
perturbers precise indicator003Ek
first observation date used1998-03-01.0
last observation date used2024-02-18.0
computer nameMPCLINUX
JD of orbit computation2456937.348728
perihelion JD uncertainty (days)8.5358E-05
argument of perihelion uncertainty (°)8.5481E-05
ascending node uncertainty (°)8.2822E-05
inclination uncertainty (°)7.3881E-06
eccentricity uncertainty 6.8774E-08
perihelion distance uncertainty (AU)1.5967E-07
Minimum Orbit Intersection Distances (in AU)
for orbit epoch: 2460400.5, reference: E2024-G51
Mercury1.64106
Venus1.31091
Earth1.03935
Mars0.36901
Jupiter2.21808
Saturn6.62476
Uranus16.4102
Neptune27.1373

Observations

487 total observations over interval: 1998 03 01.23611 – 2024 02 18.609508
These data are available for download (format description).

Date (UT) J2000 RA J2000 Dec Magn Location Ref
1998 03 01.23611 12 06 15.19 +05 00 26.4   809 – European Southern Observatory, La Silla MPS 697
1998 03 01.24931 12 06 14.60 +05 00 30.4   809 – European Southern Observatory, La Silla MPS 697
1998 03 01.26250 12 06 13.95 +05 00 33.1   809 – European Southern Observatory, La Silla MPS 697
1998 03 02.29375 12 05 27.91 +05 04 28.5 18.6   809 – European Southern Observatory, La Silla MPS 697
1998 03 02.30625 12 05 27.26 +05 04 31.2   809 – European Southern Observatory, La Silla MPS 697
1998 03 02.31944 12 05 26.59 +05 04 35.3   809 – European Southern Observatory, La Silla MPS 697
1998 03 20.13485 11 49 36.36 +06 13 22.3 19.0   704 – Lincoln Laboratory ETS, New Mexico MPS 34008
1998 03 20.15523 11 49 35.23 +06 13 27.0 18.9   704 – Lincoln Laboratory ETS, New Mexico MPS 34008
1998 03 20.17532 11 49 34.07 +06 13 29.9 19.6   704 – Lincoln Laboratory ETS, New Mexico MPS 34008
1998 03 20.19547 11 49 32.95 +06 13 34.2 19.5   704 – Lincoln Laboratory ETS, New Mexico MPS 34008
1998 03 20.21600 11 49 31.45 +06 13 41.2 19.5   704 – Lincoln Laboratory ETS, New Mexico MPS 34008
1998 04 19.14121 11 28 50.61 +06 44 35.9 20.0   704 – Lincoln Laboratory ETS, New Mexico MPS 34008
1998 04 19.16148 11 28 50.15 +06 44 33.7 20.0   704 – Lincoln Laboratory ETS, New Mexico MPS 34008
1998 04 19.20175 11 28 49.39 +06 44 29.3 19.7   704 – Lincoln Laboratory ETS, New Mexico MPS 34008
1998 04 19.22213 11 28 48.92 +06 44 27.2 19.7   704 – Lincoln Laboratory ETS, New Mexico MPS 34008
2002 05 11.29617 15 30 54.13 -21 18 18.9 18.7   704 – Lincoln Laboratory ETS, New Mexico MPS 133055
2002 05 11.31073 15 30 53.12 -21 18 17.8 19.4   704 – Lincoln Laboratory ETS, New Mexico MPS 133055
2002 05 11.32531 15 30 52.17 -21 18 16.1 19.9   704 – Lincoln Laboratory ETS, New Mexico MPS 133055
2002 05 11.33991 15 30 51.19 -21 18 14.7 19.8   704 – Lincoln Laboratory ETS, New Mexico MPS 133055
2002 05 11.35452 15 30 50.22 -21 18 13.5 20.2   704 – Lincoln Laboratory ETS, New Mexico MPS 133055
2004 12 15.25512 07 04 34.97 +28 28 15.0 19.7 C 704 – Lincoln Laboratory ETS, New Mexico MPS 294348
2004 12 15.26793 07 04 34.19 +28 28 17.3 19.9   704 – Lincoln Laboratory ETS, New Mexico MPS 133055
2004 12 15.29457 07 04 32.76 +28 28 24.0 19.6   704 – Lincoln Laboratory ETS, New Mexico MPS 133055
2004 12 15.30976 07 04 31.92 +28 28 28.2 19.9   704 – Lincoln Laboratory ETS, New Mexico MPS 133055
2005 03 11.15750 06 26 21.70 +28 20 36.0 20.9 R G96 – Mt. Lemmon Survey MPS 133055
2005 03 11.16464 06 26 22.09 +28 20 34.7 17.8 R G96 – Mt. Lemmon Survey MPS 133055
2005 03 11.17171 06 26 22.46 +28 20 33.7 18.1 R G96 – Mt. Lemmon Survey MPS 133055
2005 03 11.17876 06 26 22.87 +28 20 32.8 17.7 R G96 – Mt. Lemmon Survey MPS 133055
2007 09 20.45474 01 19 21.77 +05 50 23.8 20.1 V 691 – Steward Observatory, Kitt Peak-Spacewatch MPS 215936
2007 09 20.47233 01 19 20.98 +05 50 20.6 20.1 V 691 – Steward Observatory, Kitt Peak-Spacewatch MPS 215936
2007 09 20.48992 01 19 20.24 +05 50 17.3 19.8 V 691 – Steward Observatory, Kitt Peak-Spacewatch MPS 215936
2007 10 08.29688 01 03 29.80 +04 32 27.1 20.3 V G96 – Mt. Lemmon Survey MPS 218406
2007 10 08.30455 01 03 29.34 +04 32 25.1 20.5 V G96 – Mt. Lemmon Survey MPS 218406
2007 10 08.31225 01 03 28.90 +04 32 22.8 20.4 V G96 – Mt. Lemmon Survey MPS 218406
2007 10 08.31992 01 03 28.44 +04 32 20.4 20.4 V G96 – Mt. Lemmon Survey MPS 218406
2007 11 05.18334 00 39 17.60 +02 44 17.0 21.0 V G96 – Mt. Lemmon Survey MPS 224550
2007 11 05.19080 00 39 17.28 +02 44 16.2 21.0 V G96 – Mt. Lemmon Survey MPS 224550
2007 11 05.19838 00 39 16.99 +02 44 14.8 21.0 V G96 – Mt. Lemmon Survey MPS 224550
2007 11 05.20581 00 39 16.66 +02 44 14.0 20.8 V G96 – Mt. Lemmon Survey MPS 224550
2007 12 06.13081 00 31 22.94 +02 43 45.7 21.7 V G96 – Mt. Lemmon Survey MPS 229666
2007 12 06.13765 00 31 23.01 +02 43 46.5 21.6 V G96 – Mt. Lemmon Survey MPS 229666
2007 12 06.14451 00 31 23.05 +02 43 47.7 21.7 V G96 – Mt. Lemmon Survey MPS 229666
2007 12 06.15132 00 31 23.12 +02 43 48.7 21.1 V G96 – Mt. Lemmon Survey MPS 229666
2009 02 02.44877 11 10 36.52 +12 11 37.6 19.5 V 691 – Steward Observatory, Kitt Peak-Spacewatch MPS 272161
2009 02 02.46689 11 10 36.02 +12 11 41.5 19.5 V 691 – Steward Observatory, Kitt Peak-Spacewatch MPS 272161
2009 02 02.48526 11 10 35.48 +12 11 45.7 19.4 V 691 – Steward Observatory, Kitt Peak-Spacewatch MPS 272161
2009 02 15.43534 11 02 27.88 +13 07 25.6 19.1 V 703 – Catalina Sky Survey MPS 276428
2009 02 15.44075 11 02 27.56 +13 07 28.6 19.4 V 703 – Catalina Sky Survey MPS 276428
2009 02 15.44618 11 02 27.31 +13 07 30.2 18.9 V 703 – Catalina Sky Survey MPS 276428
2009 02 15.45164 11 02 27.02 +13 07 31.4 19.1 V 703 – Catalina Sky Survey MPS 276428
2009 02 17.27424 11 00 57.74 +13 16 06.5 18.7   704 – Lincoln Laboratory ETS, New Mexico MPS 276428
2009 02 17.28574 11 00 57.13 +13 16 10.3 18.7   704 – Lincoln Laboratory ETS, New Mexico MPS 276428
2009 02 17.29715 11 00 56.56 +13 16 13.6 18.7   704 – Lincoln Laboratory ETS, New Mexico MPS 276428
2009 02 17.30855 11 00 55.94 +13 16 16.1 18.6   704 – Lincoln Laboratory ETS, New Mexico MPS 276428
2009 02 17.31998 11 00 55.28 +13 16 19.7 18.8   704 – Lincoln Laboratory ETS, New Mexico MPS 276428
2009 02 20.34458 10 58 17.49 +13 30 34.8 19.4   704 – Lincoln Laboratory ETS, New Mexico MPS 277508
2009 02 20.35685 10 58 16.82 +13 30 38.5 19.4   704 – Lincoln Laboratory ETS, New Mexico MPS 277508
2009 02 20.36884 10 58 16.13 +13 30 40.9 19.5   704 – Lincoln Laboratory ETS, New Mexico MPS 277508
2009 02 20.38095 10 58 15.47 +13 30 44.9 19.5   704 – Lincoln Laboratory ETS, New Mexico MPS 277508
2009 02 20.39347 10 58 14.71 +13 30 49.5 19.8   704 – Lincoln Laboratory ETS, New Mexico MPS 277508
2009 02 27.29499 10 51 46.80 +14 01 53.0 18.9 V 703 – Catalina Sky Survey MPS 278527
2009 02 27.30519 10 51 46.18 +14 01 56.4 19.1 V 703 – Catalina Sky Survey MPS 278527
2009 02 27.31539 10 51 45.54 +14 01 58.3 18.8 V 703 – Catalina Sky Survey MPS 278527
2009 02 27.32549 10 51 44.96 +14 02 01.1 18.9 V 703 – Catalina Sky Survey MPS 278527
2009 03 02.16172 10 49 00.43 +14 13 35.9 19.0 V 691 – Steward Observatory, Kitt Peak-Spacewatch MPS 278527
2009 03 02.17940 10 48 59.41 +14 13 40.0 19.1 V 691 – Steward Observatory, Kitt Peak-Spacewatch MPS 278527
2009 03 02.19709 10 48 58.33 +14 13 44.4 19.1 V 691 – Steward Observatory, Kitt Peak-Spacewatch MPS 278527
2009 03 14.81122 10 37 21.63 +14 50 43.4 18.8 V J75 – OAM Observatory, La Sagra MPS 282418
2009 03 14.82454 10 37 20.95 +14 50 44.3 18.9 V J75 – OAM Observatory, La Sagra MPS 282418
2009 03 14.83813 10 37 20.22 +14 50 45.8 19.0 V J75 – OAM Observatory, La Sagra MPS 282418
2009 03 16.21131 10 36 12.78 +14 53 03.9 19.3 V 703 – Catalina Sky Survey MPS 281161
2009 03 16.21710 10 36 12.52 +14 53 04.1 19.1 V 703 – Catalina Sky Survey MPS 281161
2009 03 16.22275 10 36 12.20 +14 53 05.4 19.0 V 703 – Catalina Sky Survey MPS 281161
2009 03 16.22853 10 36 11.95 +14 53 05.9 19.2 V 703 – Catalina Sky Survey MPS 281161
2009 03 17.24268 10 35 23.80 +14 54 33.8 19.0   704 – Lincoln Laboratory ETS, New Mexico MPS 281161
2009 03 17.25473 10 35 23.27 +14 54 33.6 19.5   704 – Lincoln Laboratory ETS, New Mexico MPS 281161
2009 03 17.26666 10 35 22.62 +14 54 33.5 19.2   704 – Lincoln Laboratory ETS, New Mexico MPS 281161
2009 03 17.27869 10 35 22.07 +14 54 35.1 19.3   704 – Lincoln Laboratory ETS, New Mexico MPS 281161
2009 03 17.29094 10 35 21.45 +14 54 36.4 19.1   704 – Lincoln Laboratory ETS, New Mexico MPS 281161
2009 03 31.22904 10 27 12.70 +14 52 12.3 19.6 V G96 – Mt. Lemmon Survey MPS 283547
2009 03 31.24071 10 27 12.45 +14 52 11.0 19.6 V G96 – Mt. Lemmon Survey MPS 283547
2009 03 31.25230 10 27 12.16 +14 52 09.9 19.6 V G96 – Mt. Lemmon Survey MPS 283547
2009 03 31.26400 10 27 11.84 +14 52 08.4 19.5 V G96 – Mt. Lemmon Survey MPS 283547
2009 04 29.23318 10 30 38.59 +12 46 29.8 20.4 V 703 – Catalina Sky Survey MPS 286382
2009 04 29.23973 10 30 38.88 +12 46 25.5 20.4 V 703 – Catalina Sky Survey MPS 286382
2009 04 29.24628 10 30 39.13 +12 46 26.0 20.1 V 703 – Catalina Sky Survey MPS 286382
2009 04 29.25282 10 30 39.34 +12 46 24.4 20.7 V 703 – Catalina Sky Survey MPS 286382
